• In Germany
  • List of Countries
  • For 7 days
  • Water Temperature
  • Satellite Maps
  • Weather Map
  • Weather Widgets
  • user-avatar
    Login

    Hourly Weather Cardiff

    Today, 23 November, Thursday

    Time Temperature Precipitation Wind Pressure Humidity
    00:00 +12°C° 0.8 mm 9 mps 736 mmHg 89%
    01:00 +12°C° 0.5 mm 9 mps 736 mmHg 88%
    02:00 +11°C° 0.5 mm 8 mps 737 mmHg 88%
    03:00 +10°C° 0.5 mm 8 mps 738 mmHg 88%
    04:00 +9°C° 0 mm 8 mps 739 mmHg 85%
    05:00 +7°C° 0 mm 8 mps 740 mmHg 83%
    06:00 +5°C° 0 mm 7 mps 742 mmHg 79%
    07:00 +5°C° 0 mm 8 mps 743 mmHg 77%
    08:00 +5°C° 0 mm 8 mps 744 mmHg 75%
    09:00 +6°C° 0 mm 9 mps 745 mmHg 73%
    10:00 +6°C° 0 mm 10 mps 745 mmHg 70%
    11:00 +7°C° 0 mm 10 mps 746 mmHg 67%
    12:00 +8°C° 0 mm 11 mps 747 mmHg 65%
    13:00 +8°C° 0.1 mm 10 mps 748 mmHg 66%
    14:00 +8°C° 0.1 mm 9 mps 749 mmHg 68%
    15:00 +8°C° 0.1 mm 7 mps 749 mmHg 69%
    16:00 +8°C° 0 mm 6 mps 750 mmHg 72%
    17:00 +7°C° 0 mm 5 mps 751 mmHg 74%
    18:00 +7°C° 0 mm 3 mps 751 mmHg 76%
    19:00 +7°C° 0.2 mm 3 mps 752 mmHg 77%
    20:00 +7°C° 0.2 mm 2 mps 752 mmHg 77%
    21:00 +8°C° 0.2 mm 1 mps 752 mmHg 78%
    22:00 +8°C° 0.3 mm 1 mps 752 mmHg 77%
    23:00 +7°C° 0.3 mm 1 mps 752 mmHg 77%

    Tomorrow, 24 November, Friday

    Time Temperature Precipitation Wind Pressure Humidity
    00:00 +7°C° 0.3 mm 1 mps 751 mmHg 77%
    01:00 +7°C° 0.1 mm 1 mps 752 mmHg 76%
    02:00 +7°C° 0.1 mm 1 mps 752 mmHg 76%
    03:00 +7°C° 0.1 mm 1 mps 752 mmHg 75%
    04:00 +6°C° 0 mm 2 mps 753 mmHg 75%
    05:00 +6°C° 0 mm 2 mps 754 mmHg 74%
    06:00 +5°C° 0 mm 2 mps 754 mmHg 74%
    07:00 +5°C° 0 mm 2 mps 755 mmHg 74%
    08:00 +5°C° 0 mm 2 mps 756 mmHg 75%
    09:00 +6°C° 0 mm 2 mps 756 mmHg 75%
    10:00 +6°C° 0 mm 2 mps 757 mmHg 71%
    11:00 +7°C° 0 mm 2 mps 757 mmHg 67%
    12:00 +8°C° 0 mm 2 mps 757 mmHg 63%
    13:00 +8°C° 0 mm 2 mps 757 mmHg 65%
    14:00 +8°C° 0 mm 2 mps 757 mmHg 67%
    15:00 +8°C° 0 mm 2 mps 757 mmHg 70%
    16:00 +7°C° 0 mm 2 mps 758 mmHg 71%
    17:00 +6°C° 0 mm 2 mps 758 mmHg 73%
    18:00 +5°C° 0 mm 2 mps 758 mmHg 75%
    19:00 +5°C° 0 mm 2 mps 758 mmHg 75%
    20:00 +3°C° 0 mm 3 mps 758 mmHg 75%
    21:00 +3°C° 0 mm 3 mps 758 mmHg 75%
    22:00 +3°C° 0 mm 3 mps 758 mmHg 74%
    23:00 +3°C° 0 mm 3 mps 758 mmHg 74%

    Day after tomorrow, 25 November, Saturday

    Time Temperature Precipitation Wind Pressure Humidity
    00:00 +3°C° 0 mm 3 mps 758 mmHg 74%
    01:00 +2°C° 0 mm 3 mps 758 mmHg 73%
    02:00 +2°C° 0 mm 3 mps 758 mmHg 73%
    03:00 +1°C° 0 mm 4 mps 758 mmHg 72%
    04:00 +1°C° 0 mm 4 mps 759 mmHg 72%
    05:00 +1°C° 0 mm 4 mps 759 mmHg 72%
    06:00 0°C° 0 mm 5 mps 759 mmHg 72%
    07:00 +1°C° 0 mm 5 mps 760 mmHg 72%
    08:00 +1°C° 0 mm 5 mps 760 mmHg 72%
    09:00 +1°C° 0 mm 5 mps 761 mmHg 71%
    10:00 +2°C° 0.1 mm 6 mps 761 mmHg 68%
    11:00 +3°C° 0.1 mm 7 mps 761 mmHg 64%
    12:00 +4°C° 0.1 mm 7 mps 761 mmHg 61%
    13:00 +4°C° 0.1 mm 7 mps 762 mmHg 62%
    14:00 +4°C° 0.1 mm 7 mps 762 mmHg 64%
    15:00 +3°C° 0.1 mm 7 mps 762 mmHg 65%
    16:00 +3°C° 0 mm 6 mps 762 mmHg 67%
    17:00 +2°C° 0 mm 6 mps 763 mmHg 69%
    18:00 +1°C° 0 mm 6 mps 763 mmHg 72%
    19:00 +1°C° 0 mm 6 mps 764 mmHg 72%
    20:00 +1°C° 0 mm 6 mps 764 mmHg 72%
    21:00 +1°C° 0 mm 6 mps 764 mmHg 72%
    22:00 +1°C° 0 mm 6 mps 765 mmHg 73%
    23:00 +1°C° 0 mm 6 mps 765 mmHg 74%

    26 November, Sunday

    Time Temperature Precipitation Wind Pressure Humidity
    00:00 +1°C° 0 mm 6 mps 765 mmHg 75%
    01:00 +1°C° 0 mm 6 mps 765 mmHg 75%
    02:00 +1°C° 0 mm 6 mps 765 mmHg 75%
    03:00 +1°C° 0 mm 6 mps 765 mmHg 76%
    04:00 +2°C° 0 mm 6 mps 765 mmHg 76%
    05:00 +2°C° 0 mm 6 mps 766 mmHg 76%
    06:00 +2°C° 0 mm 6 mps 766 mmHg 76%
    07:00 +2°C° 0 mm 6 mps 766 mmHg 76%
    08:00 +2°C° 0 mm 6 mps 766 mmHg 75%
    09:00 +2°C° 0 mm 6 mps 766 mmHg 75%
    10:00 +3°C° 0 mm 6 mps 766 mmHg 71%
    11:00 +4°C° 0 mm 6 mps 767 mmHg 68%
    12:00 +5°C° 0 mm 7 mps 767 mmHg 65%
    13:00 +5°C° 0 mm 6 mps 767 mmHg 67%
    14:00 +4°C° 0 mm 6 mps 766 mmHg 69%
    15:00 +5°C° 0 mm 5 mps 766 mmHg 71%
    16:00 +5°C° 0 mm 5 mps 766 mmHg 73%
    17:00 +4°C° 0 mm 4 mps 766 mmHg 76%
    18:00 +4°C° 0 mm 4 mps 766 mmHg 79%
    19:00 +4°C° 0 mm 4 mps 766 mmHg 81%
    20:00 +4°C° 0 mm 3 mps 766 mmHg 83%
    21:00 +4°C° 0 mm 3 mps 766 mmHg 85%
    22:00 +4°C° 0 mm 3 mps 766 mmHg 87%
    23:00 +4°C° 0 mm 3 mps 766 mmHg 88%

    27 November, Monday

    Time Temperature Precipitation Wind Pressure Humidity
    00:00 +4°C° 0 mm 3 mps 765 mmHg 90%
    01:00 +5°C° 0.1 mm 4 mps 765 mmHg 90%
    02:00 +5°C° 0.1 mm 5 mps 764 mmHg 90%
    03:00 +5°C° 0.1 mm 5 mps 763 mmHg 90%
    04:00 +5°C° 0.3 mm 7 mps 763 mmHg 89%
    05:00 +6°C° 0.3 mm 8 mps 762 mmHg 88%
    06:00 +7°C° 0.3 mm 9 mps 761 mmHg 87%
    07:00 +7°C° 1.1 mm 9 mps 760 mmHg 87%
    08:00 +7°C° 1.1 mm 9 mps 760 mmHg 87%
    09:00 +7°C° 1.1 mm 9 mps 760 mmHg 87%
    10:00 +7°C° 0.2 mm 8 mps 759 mmHg 83%
    11:00 +7°C° 0.2 mm 8 mps 759 mmHg 78%
    12:00 +7°C° 0.2 mm 8 mps 758 mmHg 74%
    13:00 +7°C° 0.2 mm 8 mps 758 mmHg 75%
    14:00 +6°C° 0.2 mm 9 mps 757 mmHg 75%
    15:00 +6°C° 0.2 mm 10 mps 757 mmHg 76%
    16:00 +6°C° 0.1 mm 9 mps 757 mmHg 77%
    17:00 +6°C° 0.1 mm 9 mps 757 mmHg 78%
    18:00 +5°C° 0.1 mm 9 mps 757 mmHg 78%
    19:00 +5°C° 0 mm 8 mps 757 mmHg 80%
    20:00 +5°C° 0 mm 8 mps 757 mmHg 81%
    21:00 +4°C° 0 mm 7 mps 757 mmHg 82%
    22:00 +5°C° 0 mm 7 mps 757 mmHg 82%
    23:00 +5°C° 0 mm 7 mps 757 mmHg 82%

    28 November, Tuesday

    Time Temperature Precipitation Wind Pressure Humidity
    00:00 +5°C° 0 mm 7 mps 757 mmHg 81%
    01:00 +4°C° 0.1 mm 7 mps 757 mmHg 82%
    02:00 +4°C° 0.1 mm 7 mps 757 mmHg 82%
    03:00 +4°C° 0.1 mm 6 mps 758 mmHg 82%
    04:00 +3°C° 0 mm 6 mps 758 mmHg 83%
    05:00 +3°C° 0 mm 5 mps 758 mmHg 83%
    06:00 +3°C° 0 mm 5 mps 758 mmHg 84%
    07:00 +3°C° 0 mm 5 mps 758 mmHg 83%
    08:00 +3°C° 0 mm 4 mps 758 mmHg 83%
    09:00 +3°C° 0 mm 4 mps 759 mmHg 83%
    10:00 +4°C° 0 mm 4 mps 759 mmHg 78%
    11:00 +5°C° 0 mm 4 mps 759 mmHg 73%
    12:00 +5°C° 0 mm 5 mps 759 mmHg 68%
    13:00 +5°C° 0 mm 4 mps 758 mmHg 70%
    14:00 +5°C° 0 mm 4 mps 758 mmHg 71%
    15:00 +4°C° 0 mm 4 mps 758 mmHg 72%
    16:00 +3°C° 0 mm 4 mps 758 mmHg 75%
    17:00 +1°C° 0 mm 4 mps 758 mmHg 77%
    18:00 +1°C° 0 mm 4 mps 758 mmHg 79%
    19:00 0°C° 0 mm 4 mps 758 mmHg 79%
    20:00 0°C° 0 mm 4 mps 758 mmHg 79%
    21:00 0°C° 0 mm 4 mps 758 mmHg 80%
    22:00 0°C° 0 mm 4 mps 757 mmHg 81%
    23:00 0°C° 0 mm 4 mps 757 mmHg 83%
    Show more